Regional Weather Roundup
Issued by NWS

Home | Current Version | Previous Version | Text Only | Print | Product List | Glossary On
Versions: 1 2 3 4 5 6 7 8 9 10 11 12 13 14 15 16 17 18 19 20 21 22 23 24 25 26 27 28 29 30 31 32 33 34 35 36 37 38 39 40 41 42 43 44 45 46 47 48 49 50
000
ASUS43 KMPX 250310
RWRMN
WEATHER ROUNDUP FOR MINNESOTA
NATIONAL WEATHER SERVICE TWIN CITIES/CHANHASSEN MN
1000 PM CDT THU APR 24 2014


NOTE: "FAIR" INDICATES FEW OR NO CLOUDS BELOW 12,000 FEET WITH NO
SIGNIFICANT WEATHER AND/OR OBSTRUCTIONS TO VISIBILITY. N/A MEANS
CURRENT SKY AND/OR WEATHER CONDITIONS ARE NOT AVAILABLE.

MNZ060>063-068>070-250400-
   Twin Cities Metro

CITY           SKY/WX    TMP DP  RH WIND       PRES   REMARKS
TWIN CITIES    CLOUDY    44  39  82 NW12      29.73R
ST PAUL        CLOUDY    44  39  82 NW9       29.73S
CRYSTAL        CLOUDY    44  37  76 NW7       29.72R
BLAINE         CLOUDY    45  41  87 NW5       29.72R
EDEN PRAIRIE   CLEAR     43  38  82 CALM      29.72R
LAKEVILLE      PTCLDY    39  37  93 W3        29.73R
SOUTH ST PAUL  CLOUDY    47  40  76 W5        29.72S
LAKE ELMO      CLOUDY    43  39  87 NW5       29.73R
$$
MNZ001>005-007-008-013>017-022>024-027-028-250400-
   Northwest Minnesota

CITY           SKY/WX    TMP DP  RH WIND       PRES   REMARKS
BEMIDJI        CLOUDY    32  32  99 CALM      29.69F
HALLOCK        CLOUDY    36  34  93 CALM      29.74R
ROSEAU         LGT SNOW  34  28  80 E5        29.75S WCI  30
WARROAD        LGT SNOW  34  28  80 E7        29.76S WCI  28
THIEF RVR FALL CLOUDY    34  30  86 NE5       29.74S WCI  30
CROOKSTON      CLOUDY    37  37 100 CALM      29.74S
FOSSTON        LGT RAIN  34  32  93 CALM      29.71S
DETROIT LAKES  PTCLDY    37  37 100 NE3       29.70R
MOORHEAD       PTCLDY    43  43 100 NW5       29.72R
PARK RAPIDS    FOG       33  33 100 CALM      29.68S VSB 1/4
$$
MNZ006-009>011-018-025>026-250400-
   North Central Minnesota

CITY           SKY/WX    TMP DP  RH WIND       PRES   REMARKS
BAUDETTE       LGT SNOW  33  32  96 E8        29.74F FOG     WCI  26
FLAG ISLAND    LGT SNOW  34  32  93 NE3       29.77S
INTL FALLS     LGT SNOW  33  31  92 E8        29.74S VSB 3/4 WCI  26
WASKISH        LGT SNOW  34  32  93 NE5       29.72S WCI  30
BIG FORK       CLOUDY    34  32  93 NE1       29.71F
LONGVILLE      MIX PCPN  32  32 100 CALM      29.68F
GRAND RAPIDS   CLOUDY    34  30  86 CALM      29.69F
CRANE LAKE     LGT SNOW  30  30 100 CALM      29.76S VSB 1
ORR            MIX PCPN  32  30  93 CALM      29.69F
COOK           LGT SNOW  32  32 100 CALM      29.71F
$$
MNZ012-019>021-037-250400-
   Northeast Minnesota

CITY           SKY/WX    TMP DP  RH WIND       PRES   REMARKS
DULUTH         LGT SNOW  32  30  92 E13       29.68F FOG     WCI  22
ELY            LGT SNOW  32  30  93 E9        29.71F WCI  24
HIBBING        LGT SNOW  33  32  96 CALM      29.70S FOG
EVELETH        LGT SNOW  32  32 100 E3        29.71S
DULUTH HARBOR  MIX PCPN  34  30  86 NE14      29.72F WCI  24
TWO HARBORS    LGT SNOW  32  27  80 NE9       29.69F WCI  24
SILVER BAY     LGT SNOW  30  30 100 NE12G17   29.72F WCI  21
GRAND MARAIS     N/A     34  32  92 NE21G30   29.81F WCI  22
G MARAIS ARPRT LGT SNOW  30  27  86 E20G32    29.77F VSB 1   WCI  18
$$
MNZ029>031-032-039>041-046>048-054>057-064-250400-
   West Central Minnesota

CITY           SKY/WX    TMP DP  RH WIND       PRES   REMARKS
FERGUS FALLS   PTCLDY    39  36  87 W6        29.67R
WHEATON        CLEAR     43  39  87 CALM      29.73S
MORRIS         CLEAR     43  39  87 CALM      29.71S
ALEXANDRIA     PTCLDY    40  37  89 SW3       29.69F
ELBOW LAKE     FAIR      39  37  94 SW5       29.69S
WADENA           N/A     36  34  93 NE5       29.68S FOG
GLENWOOD       PTCLDY    41  39  93 CALM      29.71F
APPLETON       CLEAR     43  39  87 SW5       29.73R
BENSON         PTCLDY    39  37  93 N3        29.72S
ORTONVILLE     CLEAR     45  37  76 S5        29.73S
MADISON        CLEAR     45  43  93 S3        29.74S
WILLMAR        FAIR      43  39  87 NW6       29.74R
$$
MNZ033>034-036-042>043-049>051-058-059-250400-
   Central Minnesota

CITY           SKY/WX    TMP DP  RH WIND       PRES   REMARKS
ST CLOUD       CLEAR     40  36  86 CALM      29.71S
SAUK CENTRE    FAIR      39  38  95 CALM      29.70F
PAYNESVILLE    MOCLDY    40  38  93 CALM      29.73R
AITKIN         LGT SNOW  34  28  80 CALM      29.68F
PINE RIVER     DRIZZLE   34  34 100 CALM      29.72F
BRAINERD       CLOUDY    39  34  82 CALM      29.69F HAZE
STAPLES        CLOUDY    36  36 100 CALM      29.69F
LONG PRAIRIE   MOCLDY    37  36  93 CALM      29.69F
LITTLE FALLS   PTCLDY    36  34  93 CALM      29.69F FOG
LITCHFIELD     PTCLDY    41  41 100 SE3       29.73R
BUFFALO        CLEAR     39  36  89 CALM      29.73R
MAPLE LAKE     PTCLDY    39  38  97 CALM      29.73R
$$
MNZ037-044-045-052-053-250400-
   East Central Minnesota

CITY           SKY/WX    TMP DP  RH WIND       PRES   REMARKS
PRINCETON      PTCLDY    39  37  93 CALM      29.72S
MORA           CLOUDY    34  32  93 CALM      29.72F
CAMBRIDGE      CLOUDY    41  34  75 CALM      29.70S
RUSH CITY      CLOUDY    37  36  96 CALM      29.72R
MOOSE LAKE     LGT SNOW  32  32 100 CALM      29.69S
HINCKLEY       CLOUDY    36  34  93 CALM      29.71S
CLOQUET        LGT SNOW  34  32  93 CALM      29.69S
MCGREGOR       CLOUDY    32  32 100 CALM      29.71R
$$
MNZ071>073-080-081-089-090-097-098-250400-
   Southwest Minnesota

CITY           SKY/WX    TMP DP  RH WIND       PRES   REMARKS
MONTEVIDEO     CLEAR     46  43  87 NW5       29.74S
GRANITE FALLS  CLEAR     41  38  91 CALM      29.76R
CANBY          CLEAR     42  41  95 CALM      29.75S FOG
MARSHALL       CLEAR     46  37  71 E3        29.74S
REDWOOD FALLS  CLEAR     46  42  86 SW6       29.74R
OLIVIA         CLEAR     41  37  87 SW6       29.72S
PIPESTONE      CLEAR     46  43  87 SE3       29.75R
WINDOM         CLEAR     46  43  87 CALM      29.76R
WORTHINGTON    CLEAR     45  37  76 E5        29.78R
JACKSON        MOCLDY    45  39  81 S6        29.77R
TRACY          CLEAR     46  43  88 CALM      29.75R
SLAYTON        CLEAR     44  41  90 S5        29.77R
$$
MNZ065>067-074>077-082>085-091>093-250400-
   South Central Minnesota

CITY           SKY/WX    TMP DP  RH WIND       PRES   REMARKS
MANKATO        PTCLDY    43  39  87 CALM      29.75R
NEW ULM          N/A     45  45 100 W3        29.74S
ST JAMES       PTCLDY    46  43  87 SW3       29.76R
FAIRMONT       PTCLDY    45  39  81 W5        29.78R
GLENCOE        CLEAR     42  38  86 CALM      29.72S
FARIBAULT      PTCLDY    45  37  76 CALM      29.75R
OWATONNA       PTCLDY    41  37  87 W3        29.75R
WASECA         PTCLDY    37  34  87 CALM      29.76R
ALBERT LEA     CLOUDY    43  41  93 W3        29.75R
$$
MNZ078>079-086>088-094>096-250400-
   Southeast Minnesota

CITY           SKY/WX    TMP DP  RH WIND       PRES   REMARKS
ROCHESTER      CLOUDY    44  39  82 NW9       29.74R
RED WING       CLOUDY    45  41  87 NW3       29.72R
STANTON        MOCLDY    44  39  83 W5        29.73R
DODGE CENTER   MOCLDY    45  43  93 W5        29.74R
WINONA         CLOUDY    43  41  93 NW5       29.73R
AUSTIN         CLOUDY    45  39  81 W3        29.74R
PRESTON        CLOUDY    45  41  86 NW7       29.74R
$$
ABBREVIATIONS USED IN REMARKS
   TC - TEMPERATURES IN CELSIUS
  WCI - WIND CHILL INDEX
   HX - HEAT INDEX
  VSB - VISIBILITY
$$


USA.gov is the U.S. government's official web portal to all federal, state and local government web resources and services.